Location: Grand Terrace
(34.0339°N, 117.3137°W)
Time: 04:46:52
(UTC+00:00)

Daily predictions for brighter satellites

Satellite Brightness Start Highest point End
(mag) Time Altitude Azimuth Time Altitude Azimuth Time Altitude Azimuth
Delta 168 4.5 03:24:32 10° WSW 03:29:02 35° S 03:35:28 10° ESE
Cosmos 1627 Rocket 4.5 03:28:37 10° S 03:34:50 80° E 03:41:01 10° N
Cosmos 1626 3.4 03:34:44 10° SSW 03:37:42 37° W 03:40:42 10° N
SJ-6B 4.0 03:36:51 10° S 03:40:15 39° W 03:43:40 10° NNW
USA 186 1.9 03:38:12 10° S 03:41:30 85° W 03:44:51 10° NNW
Cosmos 1470 Rocket 4.0 03:37:23 10° N 03:41:30 41° E 03:45:34 10° SSE
Cosmos 1470 4.2 03:38:51 10° NNE 03:41:33 19° ENE 03:44:06 11° ESE
Lacrosse 5 rocket 3.7 03:39:46 10° WNW 03:42:39 18° WSW 03:45:28 10° SSW
Okean O Rocket 1.9 03:38:46 10° SSE 03:43:00 49° ENE 03:47:14 10° N
KORONAS-FOTON 4.2 03:39:39 10° SSE 03:43:09 41° E 03:46:40 10° NNE
Cosmos 540 Rocket 4.5 03:42:20 10° N 03:46:50 30° ENE 03:50:55 12° SE
Cosmos 1666 Rocket 3.8 03:44:17 10° N 03:48:37 72° W 03:52:57 10° S
Cosmos 1842 3.1 03:46:16 10° S 03:49:50 57° E 03:53:25 10° NNE
Tiangong -0.9 03:51:12 10° NW 03:54:10 37° NNE 03:57:06 10° E
CZ-4 R/B 3.0 03:54:47 10° SSW 03:58:20 32° W 04:01:57 10° NNW
CZ-4B R/B 3.4 03:53:10 10° S 03:58:25 70° WSW 04:03:44 10° NNW
SeaSat 1 4.5 03:58:40 10° E 04:01:15 14° NE 04:03:50 10° NNE
SPOT 5 3.7 04:01:23 15° ESE 04:04:05 28° ENE 04:07:49 10° NNE
Cosmos 1954 Rocket 4.2 03:59:13 10° SSW 04:04:30 78° WNW 04:09:48 10° NNE
Cosmos 1933 Rocket 4.2 04:01:31 10° N 04:05:40 38° E 04:08:38 17° SE
SL-24 R/B 4.2 04:03:34 10° SSE 04:08:35 80° ENE 04:12:56 10° N
Cosmos 1707 2.4 04:07:50 10° S 04:11:26 87° E 04:15:03 10° N
In-Cosmos 22 4.4 04:06:48 10° SSE 04:12:14 50° E 04:17:35 10° NNE
ASTRO E2 3.0 04:10:37 10° SW 04:13:48 35° SSE 04:15:15 24° ESE
Meteor 2-12 Rocket 4.5 04:07:42 10° S 04:13:52 89° W 04:20:03 10° N
Resurs 01 Rocket 2.4 04:09:46 10° S 04:14:01 50° W 04:18:18 10° NNW
Cosmos 2360 Rocket 4.2 04:12:42 10° NNE 04:15:20 13° NE 04:17:56 10° E
Cosmos 676 Rocket 4.2 04:11:02 10° SSW 04:16:20 75° WNW 04:21:39 10° NNE
PSLV R/B 4.0 04:14:50 11° S 04:18:09 58° W 04:21:38 10° NNW
RESURS DK-1 4.3 04:21:10 10° NNE 04:23:39 16° ENE 04:25:03 13° E
SJ 16-02 3.0 04:27:06 17° E 04:27:06 17° E 04:29:29 10° NE
Cosmos 1674 4.5 04:23:39 10° SW 04:26:41 29° W 04:29:44 10° NNW
SL-16 R/B 3.0 04:23:02 10° N 04:28:13 35° ENE 04:31:06 22° ESE
SL-27 R/B 3.9 04:31:11 17° ENE 04:31:11 17° ENE 04:32:12 10° NE
ERS-1 Rocket 3.7 04:29:37 24° ESE 04:31:59 38° ENE 04:36:36 10° N
Cosmos 2333 Rocket 4.1 04:28:45 10° NNE 04:32:28 17° NE 04:35:10 13° E
CZ-4C R/B 3.6 04:28:49 10° N 04:32:56 73° WNW 04:36:59 10° SSW
Cosmos 2369 4.2 04:27:35 10° NNW 04:33:12 58° WSW 04:37:46 15° S
Terra 2.6 04:35:24 26° ESE 04:37:07 34° ENE 04:41:22 10° N
MetOp-B 4.1 04:36:45 24° SSE 04:40:04 76° ENE 04:45:26 10° N
Cosmos 841 Rocket 4.2 04:35:38 10° N 04:40:34 40° ENE 04:42:38 28° ESE
Cosmos 1763 Rocket 4.0 04:36:11 10° NNW 04:41:15 54° WSW 04:44:58 18° S
Atlas Centaur 2 3.1 04:33:50 10° W 04:41:46 66° S 04:47:22 23° ESE
Spot 2 Rocket 4.2 04:44:22 29° ESE 04:46:10 38° ENE 04:50:51 10° N
Cosmos 1300 4.1 04:44:54 10° NNE 04:47:23 22° ENE 04:47:23 22° ENE
Cosmos 1400 Rocket 2.8 04:50:12 25° SSW 04:52:21 75° W 04:56:12 10° N
Cosmos 1441 Rocket 3.3 04:50:57 10° NNW 04:54:32 64° W 04:55:40 39° SSW
USA 234 3.8 04:48:42 10° NE 04:55:06 59° NW 05:01:29 10° WSW
Cosmos 2315 Rocket 4.4 04:49:01 10° N 04:55:07 46° E 04:57:29 32° SE
ARGOS Delta rocket 3.8 04:55:11 29° S 04:57:22 68° W 05:01:46 10° NNW
Cosmos 1733 Rocket 4.1 04:54:02 10° NNE 04:57:53 29° ENE 04:58:06 29° E
ATLAS CENTAUR R/B 2.2 04:54:41 10° SW 04:57:58 41° WNW 05:01:20 10° NNE
Cosmos 1908 3.7 04:55:25 10° NNW 04:58:54 50° W 05:00:08 33° SSW
Cosmos 1356 Rocket 3.4 04:58:19 51° SE 04:59:05 62° E 05:03:15 10° NNE
IRS-1A Rocket 4.2 04:57:26 31° SSE 05:00:10 88° WSW 05:05:42 10° NNW
Okean-O 3.8 04:57:59 18° SSW 05:00:46 38° W 05:04:52 10° NNW
Cosmos 1417 Rocket 4.5 04:58:31 10° N 05:04:42 80° W 05:08:06 28° S
Cosmos 1980 Rocket 4.3 05:03:46 10° NW 05:07:42 20° W 05:11:37 10° SW
USA 245 2.9 05:09:33 84° SSW 05:09:38 86° WSW 05:13:38 10° NNW
Cosmos 2322 Rocket 2.6 05:04:56 10° N 05:10:27 50° ENE 05:11:59 39° ESE
Ariane Rocket 3.0 05:09:34 47° SE 05:10:53 65° ENE 05:15:56 10° N
Meteor 2-10 Rocket 3.5 05:06:27 10° N 05:11:55 70° E 05:13:20 48° SSE
Cosmos 1315 Rocket 4.5 05:13:43 22° ENE 05:13:43 22° ENE 05:15:45 10° NE
Meteor 1-12 Rocket 4.3 05:07:41 10° N 05:13:44 75° E 05:15:46 43° SSE
Meteor 1-22 Rocket 4.3 05:08:01 10° N 05:13:47 83° W 05:16:17 37° S
Cosmos 2228 Rocket 3.2 05:16:47 45° SSW 05:18:08 76° W 05:22:42 10° N
Landsat 4 3.9 05:19:36 54° NNE 05:19:36 54° NNE 05:22:25 10° N
Okean O Rocket 4.4 05:18:03 10° WSW 05:19:29 11° W 05:20:55 10° WNW
BlueWalker 3 3.7 05:22:32 22° NE 05:22:32 22° NE 05:23:57 10° NE
Cosmos 1869 Rocket 4.5 05:18:05 10° NNW 05:22:18 44° W 05:23:48 32° SW
Cosmos 2278 4.1 05:17:59 10° NNW 05:23:34 55° WSW 05:25:34 37° SSW
MOS 1 Rocket 3.6 05:26:15 51° S 05:27:40 84° WSW 05:33:02 10° NNW
Cosmos 1241 Rocket 4.4 05:24:53 14° SSW 05:30:11 82° WNW 05:36:26 10° NNE
Meteor 1-21 4.3 05:28:09 37° SSW 05:30:34 79° W 05:36:24 10° N
Tiangong 0.2 05:28:01 10° WNW 05:29:15 20° W 05:29:15 20° W
Cosmos 2219 Rocket 3.3 05:29:33 10° N 05:34:31 30° ENE 05:35:22 29° ENE
SeaSat 1 2.4 05:37:33 62° SSW 05:38:08 69° WSW 05:43:02 10° NNW
Cosmos 968 Rocket 4.2 05:35:06 22° SW 05:38:12 50° WNW 05:43:14 10° N
Spot 1 4.3 05:33:56 10° N 05:38:36 79° WNW 05:39:20 63° SW
MetOp-A 4.2 05:38:18 54° E 05:38:37 55° ENE 05:43:44 10° N
ATLAS 2AS CENTAUR R/B 3.0 05:32:55 10° NNW 05:39:30 53° NE 05:41:14 42° E
SPOT 3 Rocket 3.6 05:41:18 57° SSW 05:42:08 67° WSW 05:47:17 10° NNW
Landsat 5 3.7 05:41:17 10° N 05:45:11 66° WNW 05:45:11 66° WNW
Cosmos 1455 4.4 05:42:35 10° NNE 05:43:39 16° NE 05:43:39 16° NE
Okean 3 3.8 05:46:51 58° WNW 05:46:51 58° WNW 05:50:45 10° N
Cosmos 1346 Rocket 3.4 05:43:01 10° NNW 05:46:06 51° NW 05:46:06 51° NW
Cosmos 1862 Rocket 4.3 05:47:52 42° WSW 05:48:28 45° W 05:52:42 10° N
Cosmos 1814 Rocket 4.0 05:52:53 10° NNW 05:58:07 71° ENE 05:58:07 71° ENE
Cosmos 2360 Rocket 2.1 05:54:16 10° NNW 05:59:56 79° WSW 06:00:15 76° SSW
RESURS DK-1 3.8 05:57:45 10° NW 06:00:39 31° W 06:00:39 31° W
SJ 16-02 2.8 06:03:48 28° W 06:04:43 30° WNW 06:08:33 10° N
COSMOS 2455 3.3 06:10:53 47° ENE 06:10:53 47° ENE 06:15:35 10° NE
SL-16 R/B 3.6 06:07:28 10° NW 06:12:03 26° WSW 06:12:57 25° WSW
Terra 3.8 06:14:06 19° WSW 06:14:44 19° W 06:18:05 10° NW
Cosmos 2333 Rocket 2.4 06:11:29 10° NNW 06:17:09 61° WSW 06:17:10 61° WSW
Cosmos 839 Rocket 3.8 06:21:14 10° NNW 06:27:44 84° ENE 06:27:50 83° E
ARIANE 5 R/B 3.9 06:30:35 37° N 06:30:35 37° N 06:33:18 10° N
CENTAUR R/B 4.4 06:33:07 13° ENE 06:33:07 13° ENE 06:34:09 10° ENE
Atlas Centaur 2 3.6 06:23:12 10° W 06:29:34 40° SW 06:29:34 40° SW
Cosmos 1709 Rocket 4.3 06:33:07 55° ENE 06:33:07 55° ENE 06:38:51 10° NNE
Cosmos 2227 Rocket 4.2 06:37:23 17° ENE 06:37:23 17° ENE 06:39:08 10° NE
Cosmos 2237 Rocket 4.2 06:31:45 10° NNE 06:35:22 17° ENE 06:36:08 17° ENE
DNEPR-1 R/B 4.3 06:30:21 10° NNW 06:35:43 68° NNW 06:35:43 68° NNW
Cosmos 2322 4.0 06:34:08 10° NNW 06:39:08 58° NE 06:39:08 58° NE
CZ-4C R/B 3.1 06:43:38 35° NNE 06:43:38 35° NNE 06:46:38 10° NNE
Cosmos 1375 Rocket 4.5 06:45:49 10° NNW 06:52:08 83° NNW 06:52:08 83° NNW
Cosmos 2322 Rocket 4.1 06:50:14 10° WNW 06:53:48 18° W 06:53:48 18° W
Cosmos 2297 Rocket 2.8 06:56:04 48° NE 06:56:04 48° NE 07:00:09 10° NNE
Cosmos 2098 Rocket 4.4 07:06:10 10° N 07:11:59 53° ENE 07:11:59 53° ENE
Meteor 2-5 Rocket 4.1 07:18:28 64° N 07:18:28 64° N 07:23:23 10° N
Cosmos 2219 Rocket 3.6 07:13:25 10° NW 07:17:04 28° WNW 07:17:04 28° WNW
ALOS 2 4.3 07:21:24 30° N 07:21:24 30° N 07:23:41 10° N
COSMOS 2428 3.3 07:16:28 10° NNW 07:20:46 51° NW 07:20:46 51° NW
Cosmos 2263 Rocket 4.2 07:28:45 17° ENE 07:28:45 17° ENE 07:30:42 10° NE
USA 281 3.6 07:28:43 51° W 07:28:43 51° W 07:34:25 10° NNW
ATLAS 2AS CENTAUR R/B 4.2 07:24:47 10° WNW 07:28:39 22° W 07:28:39 22° W
Cosmos 2181 Rocket 4.2 07:38:17 10° N 07:43:33 66° NNE 07:43:33 66° NNE
Cosmos 2074 Rocket 4.2 07:48:37 64° NNE 07:48:37 64° NNE 07:53:53 10° N
SL-4 R/B 4.5 07:58:30 10° NNW 08:00:05 20° NNW 08:00:05 20° NNW
SL-12 R/B(2) 4.1 08:07:12 67° WSW 08:08:17 75° WNW 08:17:27 10° NNE
SL-16 R/B 3.5 08:08:19 10° N 08:13:24 32° ENE 08:13:48 32° ENE
Cosmos 2082 4.5 08:18:42 46° NE 08:18:42 46° NE 08:22:47 10° NNE
Cosmos 2227 Rocket 3.2 08:19:09 40° NW 08:19:09 40° NW 08:23:54 10° N
Cosmos 2237 Rocket 3.2 08:14:16 10° NNW 08:17:55 39° NW 08:17:55 39° NW
CENTAUR R/B 2.9 08:20:13 49° NW 08:20:13 49° NW 08:26:13 10° NNE
GEOS 3 Rocket 4.4 08:17:56 10° NNE 08:22:06 45° NNW 08:22:06 45° NNW
CZ-2D R/B 4.5 08:25:10 10° ENE 08:26:55 12° E 08:26:55 12° E
Nadezhda 3 Rocket 4.0 08:24:58 10° N 08:30:36 73° N 08:30:36 73° N
Cosmos 1937 Rocket 4.3 08:40:11 46° NE 08:40:11 46° NE 08:44:03 10° NNE
Cosmos 2297 Rocket 4.4 08:37:50 13° WNW 08:39:06 14° NW 08:42:03 10° NNW
H-2A R/B 4.4 08:38:17 10° NNW 08:39:52 17° NW 08:39:52 17° NW
Cosmos 2219 3.9 08:43:27 46° NW 08:43:27 46° NW 08:48:11 10° N
Cosmos 1898 Rocket 4.2 08:45:27 51° N 08:45:27 51° N 08:49:19 10° NNE
ADEOS II 4.5 08:44:57 10° ENE 08:46:53 12° E 08:47:23 12° E
Resurs 1-4 Rocket 3.4 08:58:41 10° NE 09:03:13 30° E 09:03:13 30° E
SL-8 Rocket 3.8 09:06:26 87° N 09:06:26 87° N 09:12:31 10° N
NOSS 3-2 (A) 4.4 09:09:04 30° NW 09:09:25 30° NW 09:14:29 10° NNE
Cosmos 2263 Rocket 3.0 09:10:25 40° NW 09:10:25 40° NW 09:15:20 10° N
NOSS 3-2 (C) 3.3 09:16:18 62° NNW 09:16:18 62° NNW 09:21:34 10° NNE
Meteor 2-1 Rocket 4.2 09:12:06 10° N 09:17:52 86° N 09:17:52 86° N
Cosmos 1680 Rocket 4.0 09:17:42 10° N 09:22:46 51° ENE 09:23:20 49° E
Cosmos 1959 Rocket 4.3 09:25:42 77° WSW 09:26:03 80° W 09:32:24 10° N
USA 267 3.9 09:20:16 10° ENE 09:26:15 38° SE 09:26:45 38° SE
Cosmos 1437 Rocket 4.4 09:29:32 32° NE 09:29:32 32° NE 09:31:57 10° NNE
Cosmos 1844 Rocket 3.1 09:29:05 50° ESE 09:29:17 50° ESE 09:34:39 10° NNE
Cosmos 1818 4.1 09:24:56 10° NNW 09:30:18 55° ENE 09:32:05 38° ESE
COBE Rocket 4.3 09:33:31 10° N 09:38:16 58° WNW 09:38:16 58° WNW
BREEZE-M DEB (TANK) 3.8 09:45:16 28° NE 09:45:37 29° NE 09:49:56 10° ESE
IDEFIX/ARIANE 42P 2.5 09:44:07 10° N 09:49:19 67° WNW 09:49:25 67° W
MOZ.5/SAFIR/RUBIN 5/SL-8 4.5 09:56:28 41° WNW 09:56:28 41° WNW 09:59:55 10° NNW
SL-16 R/B 3.6 09:52:31 10° NW 09:55:38 25° WNW 09:55:38 25° WNW
Mugunghwa Rocket 4.4 09:59:07 43° SSE 09:59:07 43° SSE 10:04:46 10° ESE
CZ-2C R/B 2.9 09:54:06 10° NNE 09:59:25 86° ESE 10:00:02 70° S
CZ-2C R/B 2.5 09:59:28 56° SSE 10:00:39 84° ENE 10:06:00 10° N
Cosmos 1603 4.5 09:56:56 10° N 10:02:32 50° ENE 10:08:02 10° SE
Cosmos 1125 Rocket 4.3 10:01:35 36° SE 10:02:58 44° ESE 10:07:58 10° NNE
CZ-2D R/B 2.1 10:02:14 10° N 10:07:30 66° WNW 10:08:12 59° WSW
Cosmos 2228 3.8 10:03:23 10° NNW 10:06:35 40° NW 10:06:35 40° NW
MSX 4.1 10:04:36 10° N 10:10:09 53° WNW 10:11:12 46° WSW
Cosmos 1821 Rocket 4.1 10:09:42 48° WSW 10:10:48 55° W 10:16:48 10° N
Cosmos 1943 3.0 10:05:31 10° NNW 10:11:08 82° WSW 10:12:59 44° S
Cosmos 1867 4.1 10:10:54 42° W 10:11:52 47° WNW 10:17:09 10° NNE
FENGYUN 3A 3.5 10:09:04 10° NNE 10:14:28 89° WNW 10:15:51 52° SSW
SL-24 DEB 4.3 10:11:26 10° N 10:15:59 70° E 10:17:00 51° SSE
AQUA 3.7 10:13:59 10° NNE 10:18:43 83° ESE 10:19:42 57° S
USA 238 DEB 4.1 10:20:08 33° W 10:22:14 43° NW 10:28:27 10° NNE
USA 238 4.1 10:20:10 33° W 10:22:17 44° NW 10:28:31 10° NNE
ALOS 2.4 10:20:10 10° NNE 10:24:46 67° ESE 10:26:09 43° SSE
ADEOS II 2.1 10:21:41 10° N 10:26:52 65° WNW 10:28:15 47° SW
SAR-Lupe-4 4.1 10:26:06 10° NNE 10:29:33 50° E 10:30:06 45° SE
Delta 142 4.4 10:30:17 39° S 10:30:17 39° S 10:35:18 10° ESE
BREEZE-M DEB (TANK) 3.2 10:30:15 47° SSE 10:30:38 50° SE 10:37:14 10° NE
ATLAS 5 CENTAUR R/B 2.0 10:37:32 30° SE 10:37:54 31° ESE 10:40:54 10° NE
Cosmos 921 Rocket 2.7 10:38:01 10° NNW 10:42:13 74° WSW 10:43:32 42° S
Resurs 1-4 Rocket 3.2 10:38:33 10° NNW 10:42:56 28° WNW 10:44:17 25° W
Iridium 2 4.4 10:45:17 25° NNW 10:45:17 25° NNW 10:46:32 10° N
Meteor 1-28 Rocket 2.9 10:44:34 60° SSW 10:45:03 73° WSW 10:48:36 10° NNW
Cosmos 1844 4.5 10:43:33 30° WSW 10:45:36 39° WNW 10:51:01 10° N
Cosmos 1606 Rocket 3.7 10:42:58 10° NNW 10:47:16 52° W 10:48:20 42° SW
Cosmos 2058 2.8 10:46:01 40° S 10:47:24 86° E 10:51:29 10° N
Cosmos 1934 Rocket 4.0 10:44:13 30° SSW 10:47:31 70° W 10:53:53 10° N
SL-16 R/B 2.5 10:44:24 12° SSE 10:50:16 81° WSW 10:56:33 10° NNW
IRAS Rocket 4.1 10:45:44 10° NNE 10:51:15 86° WNW 10:54:25 26° SSW
Cosmos 2123 Rocket 3.9 10:47:20 10° N 10:53:32 82° W 10:59:02 14° S
NOSS 2-2 (C) 2.8 10:54:30 48° SSW 10:55:21 79° ESE 10:58:29 10° NNE
CZ-4 R/B 4.4 10:53:06 10° NNE 10:58:00 59° ESE 11:01:56 16° S
Cosmos 2298 Rocket 4.0 10:56:46 25° SSW 10:59:57 85° ESE 11:05:18 10° NNE
Cosmos 1726 Rocket 3.8 10:58:02 10° NNW 11:02:17 48° W 11:04:06 29° SSW
NOSS 2-2 (D) 3.3 11:03:33 30° S 11:05:05 57° ESE 11:08:14 10° NE
Cosmos 1238 Rocket 2.7 11:02:07 10° N 11:05:15 56° E 11:07:23 16° SSE
USA 267 3.7 11:03:00 10° NNE 11:09:16 51° NW 11:14:06 17° WSW
Delta 2 Rocket 3.2 11:08:38 18° W 11:11:29 70° SSW 11:15:48 10° ESE
NOSS 2-3 (E) 3.1 11:10:11 28° SSW 11:11:59 77° ESE 11:15:41 10° NNE
METEOR-M 4.1 11:07:56 10° NNE 11:13:18 86° WNW 11:17:40 16° SSW
Cosmos 1844 Rocket 4.3 11:10:44 14° W 11:13:24 19° WNW 11:17:21 10° NNW
NOAA 11 4.2 11:08:10 10° NNE 11:13:41 86° ESE 11:18:28 14° SSW
NOSS 2-3 (C) 3.0 11:15:42 26° SSW 11:17:38 90° NNW 11:21:21 10° NNE
SEDSat Delta rocket 2.8 11:19:21 21° WSW 11:21:55 59° S 11:25:54 10° ESE
H-2A R/B 3.9 11:18:38 10° NE 11:23:06 28° E 11:27:27 10° SSE
Cosmos 724 4.2 11:18:26 10° NNW 11:24:16 86° WSW 11:30:09 10° SSE
Cosmos 1544 3.4 11:26:12 24° W 11:26:32 25° W 11:28:45 10° NNW
IRS-1D 3.8 11:22:40 10° NNE 11:27:47 68° ESE 11:32:46 10° S
Orbus 7S? 4.5 11:25:12 10° WNW 11:28:58 44° SW 11:36:52 10° SSE
Cosmos 1602 Rocket 3.8 11:25:45 10° S 11:30:09 71° E 11:34:36 10° N
Cosmos 1271 Rocket 2.9 11:30:14 10° S 11:33:46 64° E 11:37:19 10° NNE
CZ-2C R/B 2.2 11:29:23 10° N 11:33:56 78° WNW 11:38:33 10° SSW
Lacrosse 5 3.2 11:30:29 10° S 11:34:57 33° ESE 11:39:27 10° ENE
Envisat 3.4 11:31:49 10° N 11:36:39 47° WNW 11:40:58 13° SW
Cosmos 2278 Rocket 3.0 11:32:50 10° S 11:38:16 49° ESE 11:43:42 10° NNE
Cosmos 1862 3.5 11:35:26 10° S 11:39:11 67° E 11:42:57 10° NNE
UNK 4.4 11:36:44 10° SSW 11:40:54 34° W 11:45:04 10° NNW
Cosmos 1758 Rocket 3.6 11:38:16 10° SSW 11:42:40 68° W 11:47:04 10° N
Cosmos 2058 Rocket 3.9 11:39:35 10° NNW 11:43:30 31° W 11:47:21 10° SSW
YAOGAN 6 2.6 11:43:48 10° N 11:46:53 48° WNW 11:49:48 11° SSW
USA 276 2.9 11:47:58 11° SSW 11:50:33 39° SE 11:53:16 10° ENE
SWARM A 4.3 11:47:35 10° S 11:51:06 83° W 11:54:38 10° N
Cosmos 1812 4.4 11:50:20 10° NW 11:52:16 14° W 11:53:51 11° WSW
Mugunghwa Rocket 4.5 11:47:48 10° WSW 11:53:56 41° S 11:59:48 10° ESE
